This demonstration page uses our WeatherBlox Daily Observations layout. Learn more.

38.88101, -77.10428

Hourly Observations for January 7, 2016

Temp ( °F °C ) Dew Point ( °F °C ) Humidity (%) Winds ( mph kmh ) Pressure ( in mb ) Visibility ( mi km ) Precip ( " mm )
12:52 am 00:52 Mostly Cloudy 36 2 27 -3 70 70 Calm 30.39 1029 10 16.09344 0 0
1:52 am 01:52 Cloudy 34 1 27 -3 75 75 NE 3 6 30.39 1029 10 16.09344 0 0
2:52 am 02:52 Cloudy 36 2 27 -3 70 70 NE 3 6 30.39 1029 10 16.09344 0 0
3:14 am 03:14 Cloudy 36 2 28 -2 75 75 Calm 30.39 1029 10 16.09344 0 0
3:52 am 03:52 Cloudy 36 2 28 -2 75 75 Calm 30.36 1028 10 16.09344 0 0
4:52 am 04:52 Cloudy 36 2 28 -2 75 75 ENE 3 6 30.36 1028 10 16.09344 0 0
5:23 am 05:23 Cloudy 36 2 28 -2 75 75 Calm 30.36 1028 10 16.09344 0 0
5:52 am 05:52 Cloudy 37 3 28 -2 70 70 Calm 30.36 1028 10 16.09344 0 0
6:08 am 06:08 Cloudy 37 3 28 -2 70 70 Calm 30.36 1028 10 16.09344 0 0
6:52 am 06:52 Cloudy 37 3 28 -2 70 70 Calm 30.36 1028 10 16.09344 0 0
7:05 am 07:05 Cloudy 36 2 28 -2 75 75 NE 5 7 30.36 1028 10 16.09344 0 0
7:52 am 07:52 Cloudy 37 3 28 -2 70 70 ENE 5 7 30.36 1028 10 16.09344 0 0
8:52 am 08:52 Cloudy 39 4 30 -1 70 70 Calm 30.36 1028 10 16.09344 0 0
9:23 am 09:23 Cloudy 37 3 34 1 87 87 SE 3 6 30.36 1028 10 16.09344 0 0
9:52 am 09:52 Cloudy with Mist and Fog 37 3 34 1 87 87 Calm 30.36 1028 6 9.656064 0 0
10:05 am 10:05 Cloudy 37 3 34 1 87 87 Calm 30.36 1028 10 16.09344 0 0
10:52 am 10:52 Cloudy 39 4 34 1 81 81 Calm 30.33 1027 7 11.265408 0 0
11:00 am 11:00 Cloudy 39 4 34 1 81 81 NNE 3 6 30.33 1027 7 11.265408 0 0
11:52 am 11:52 Cloudy 39 4 36 2 87 87 Calm 30.3 1026 8 12.874752 0 0
12:52 pm 12:52 Cloudy 41 5 36 2 81 81 NE 5 7 30.27 1025 7 11.265408 0 0
1:52 pm 13:52 Cloudy with Haze 41 5 36 2 81 81 Calm 30.24 1024 4 6.437376 0 0
2:52 pm 14:52 Cloudy with Haze 43 6 37 3 81 81 Calm 30.24 1024 5 8.04672 0 0
3:32 pm 15:32 Cloudy with Haze 43 6 37 3 81 81 NNE 3 6 30.24 1024 6 9.656064 0 0
3:52 pm 15:52 Cloudy 43 6 37 3 81 81 Calm 30.24 1024 7 11.265408 0 0
4:52 pm 16:52 Cloudy 43 6 37 3 81 81 NE 5 7 30.24 1024 7 11.265408 0 0
5:14 pm 17:14 Cloudy 43 6 37 3 81 81 NNE 3 6 30.24 1024 8 12.874752 0 0
5:52 pm 17:52 Cloudy 43 6 37 3 81 81 ENE 6 9 30.24 1024 10 16.09344 0 0
6:52 pm 18:52 Cloudy 43 6 37 3 81 81 ENE 5 7 30.24 1024 9 14.484096 0 0
7:52 pm 19:52 Cloudy 43 6 37 3 81 81 E 5 7 30.24 1024 7 11.265408 0 0
8:52 pm 20:52 Cloudy 41 5 37 3 87 87 NE 5 7 30.24 1024 8 12.874752 0 0
9:52 pm 21:52 Cloudy with Mist and Fog 41 5 37 3 87 87 ENE 10 17 30.21 1023 6 9.656064 0 0
10:52 pm 22:52 Cloudy 39 4 37 3 93 93 NE 5 7 30.18 1022 8 12.874752 0 0
10:59 pm 22:59 Cloudy with Mist and Fog 39 4 37 3 93 93 NE 6 9 30.18 1022 6 9.656064 0 0
11:26 pm 23:26 Cloudy with Mist and Fog 39 4 37 3 93 93 ENE 5 7 30.18 1022 4 6.437376 0 0
11:52 pm 23:52 Cloudy with Mist and Fog 39 4 37 3 93 93 NNW 3 6 30.18 1022 4 6.437376 0 0

Powered by AerisWeather